This is the latest recevied weather packets stored in our database for station/object SK4BW-10. If no packets are shown the sender has not sent any weather packets the latest 10 day(s).
| Time | Temp. | Humidity | Pressure | Rain* | Wind** | Luminosity | Snow |
|---|---|---|---|---|---|---|---|
| 1777628271 | 16.67° C | 34% | 1019.1 hPa | - | - | - | - |
| 1777627370 | 16.11° C | 38% | 1019.3 hPa | - | - | - | - |
| 1777626469 | 15.56° C | 39% | 1019.4 hPa | - | - | - | - |
| 1777625569 | 15° C | 39% | 1019.6 hPa | - | - | - | - |
| 1777624667 | 14.44° C | 40% | 1019.6 hPa | - | - | - | - |
| 1777623765 | 13.89° C | 41% | 1019.6 hPa | - | - | - | - |
| 1777622864 | 13.89° C | 48% | 1019.7 hPa | - | - | - | - |
| 1777621963 | 13.33° C | 49% | 1019.7 hPa | - | - | - | - |
| 1777621063 | 12.78° C | 50% | 1019.8 hPa | - | - | - | - |
| 1777620163 | 12.78° C | 52% | 1019.8 hPa | - | - | - | - |
| 1777619262 | 12.22° C | 52% | 1019.9 hPa | - | - | - | - |
| 1777618362 | 11.67° C | 53% | 1020.1 hPa | - | - | - | - |
| 1777617460 | 11.67° C | 58% | 1020 hPa | - | - | - | - |
| 1777616559 | 11.11° C | 65% | 1020 hPa | - | - | - | - |
| 1777615659 | 10.56° C | 65% | 1020 hPa | - | - | - | - |
| 1777614758 | 10.56° C | 65% | 1020.2 hPa | - | - | - | - |
| 1777613858 | 10.56° C | 64% | 1020.2 hPa | - | - | - | - |
| 1777612957 | 10.56° C | 63% | 1020.2 hPa | - | - | - | - |
| 1777612056 | 10.56° C | 63% | 1020.4 hPa | - | - | - | - |
| 1777611156 | 10.56° C | 61% | 1020.7 hPa | - | - | - | - |
| 1777610255 | 10° C | 61% | 1020.8 hPa | - | - | - | - |
| 1777609354 | 10° C | 59% | 1020.9 hPa | - | - | - | - |
| 1777608453 | 9.44° C | 59% | 1020.9 hPa | - | - | - | - |
| 1777607552 | 10.56° C | 58% | 1021 hPa | - | - | - | - |
| 1777606651 | 10° C | 56% | 1021 hPa | - | - | - | - |
* Rain since midnight (hover to see other rain measurements)
** Current wind speed in m/s (hover to see current wind gust speed)